Regional Weather Roundup
Issued by NWS

Current Version | Previous Version | Text Only | Print | Product List | Glossary On
Versions: 1 2 3 4 5 6 7 8 9 10 11 12 13 14 15 16 17 18 19 20 21 22 23 24 25 26 27 28 29 30 31 32 33 34 35 36 37 38 39 40 41 42 43 44 45 46 47 48 49 50
000
ASUS43 KLMK 051110
RWRKY
KENTUCKY REGIONAL WEATHER ROUNDUP
NATIONAL WEATHER SERVICE LOUISVILLE KY
700 AM EDT WED AUG 05 2015

NOTE "FAIR" INDICATES FEW OR NO CLOUDS BELOW 12,000 FEET
WITH NO SIGNIFICANT WEATHER AND/OR OBSTRUCTIONS TO VISIBILITY.

KYZ001>023-026-027-061>063-070>075-051200-
WESTERN AND SOUTH CENTRAL KENTUCKY

CITY           SKY/WX    TMP DP  RH WIND       PRES   REMARKS
PADUCAH        CLOUDY    73  70  90 CALM      29.98R
HENDERSON      PTCLDY    70  66  88 E8        29.99S
OWENSBORO      MOCLDY    72  70  93 NE7       30.02R
HOPKINSVILLE   MOCLDY    73  69  89 NE3       30.00R
BOWLING GREEN  PTCLDY    72  68  87 CALM      30.01S
GLASGOW        CLOUDY    69  69 100 CALM      30.02R
$$

KYZ024-025-028>034-038-045-046-053-051200-
NORTH CENTRAL KENTUCKY

CITY           SKY/WX    TMP DP  RH WIND       PRES   REMARKS
LOUISVILLE/SDF PTCLDY    71  68  90 CALM      30.03S FOG
LOUISVILLE/LOU CLEAR     70  68  93 CALM      30.04S FOG
FORT KNOX      MOCLDY    68  67  97 CALM      30.03S FOG
$$

KYZ035>037-039>044-047>052-055>060-089>105-051200-
NORTHEAST KENTUCKY

CITY           SKY/WX    TMP DP  RH WIND       PRES   REMARKS
LEXINGTON      MOCLDY    67  64  90 CALM      30.06S
COVINGTON      PTCLDY    65  61  87 CALM      30.05S
FRANKFORT      PTCLDY    65  64  97 CALM      30.04S
$$

KYZ054-064>069-076>088-106>120-051200-
SOUTHEAST KENTUCKY

CITY           SKY/WX    TMP DP  RH WIND       PRES   REMARKS
JACKSON        CLOUDY    67  65  93 CALM      30.08S FOG
LONDON         CLOUDY    69  64  84 CALM      30.08R
SOMERSET       MOCLDY    64  64 100 CALM      30.07R
MIDDLESBORO    CLOUDY    66  66  98 CALM      30.09R
MONTICELLO     CLOUDY    68  68 100 CALM      30.08R
$$



USA.gov is the U.S. government's official web portal to all federal, state and local government web resources and services.